Погода в Андреевке

Россия / Пермский край     57°31′02″N   55°16′03″E
темп.,
°C
ветер,
м/с
пор.,
м/с
влажн.,
%
обл.,
%
осадки,
мм/ч
давл.,
гПа
погр.,
м
9 марта, вт
вт923:00−10з2296100 1.8 99928
02:00−11юз2497100 0.1 1000118
05:00−12зюз2397100 0.3 100279
08:00−15зсз129795 0.1 100321
11:00−11сз239181 0.1 1005287
14:00−8з238287 0.0 1008737
17:00−8зсз228493 0.1 1009615
20:00−12с1295100 0.1 101022
10 марта, ср
ср1023:00−13ссв3796100 0.1 1011203
02:00−17ссв4996100 0.0 1011283
05:00−20ссв51094100 0.1 1011301
08:00−23с5119393 0.0 1012312
11:00−22с6128985 0.0 1012360
14:00−18с7138078 0.0 1011571
17:00−16с7128085 0.0 1012715
20:00−20с6148881 0.0 1013612
11 марта, чт
чт1123:00−22с5139189 0.0 1015495
02:00−24с4119569 0.0 1016291
05:00−27сз229857 0.0 101627
08:00−27зсз129811 0.0 101719
11:00−20з249555 0.0 1017281
14:00−15зсз3691100 0.1 1016432
17:00−12з4989100 0.1 1016632
20:00−9сз41192100 0.1 1016733
12 марта, пт
пт1223:00−11сз41288100 0.2 1017572
02:00−14зсз4118891 0.0 1019382
05:00−17зсз4109252 0.0 1020299
08:00−17зсз4109296 0.0 1022348
11:00−12з5108298 0.0 1023494
14:00−8з6117476 0.0 1023817
17:00−8з6117778 0.0 1023879
20:00−10з5148396 0.0 1024692
13 марта, сб
сб1323:00−11з4128997 0.0 1026541
02:00−12з41191100 0.0 1027419
05:00−13з41091100 0.0 1029361
08:00−15зюз389299 0.0 1030298
11:00−13зюз478894 0.0 1031340
14:00−9зюз488397 0.0 1032465
17:00−7зюз488198 0.0 1031630
20:00−10юз399393 0.0 1030214